Regional Weather Roundup
Issued by NWS Charleston, WV

Home | Current Version | Previous Version | Text Only | Print | Product List | Glossary Off
Versions: 1 2 3 4 5 6 7 8 9 10 11 12 13 14 15 16 17 18 19 20 21 22 23 24 25 26 27 28 29 30 31 32 33 34 35 36 37 38 39 40 41 42 43 44 45 46 47 48 49 50

864
ASUS41 KRLX 250810
RWRRLX
West Virginia Regional Weather Roundup
National Weather Service Charleston WV
400 AM EDT WED MAY 25 2016

Note: "fair" indicates few or no clouds below 12,000 feet with no
significant weather and/or obstructions to visibility.

WVZ003-250900-
Northern Panhandle of West Virginia

CITY           SKY/WX    TMP DP  RH WIND       PRES   REMARKS
WHEELING         N/A     60  50  69 S6        30.12S
$$

WVZ009-250900-
Northwest West Virginia

CITY           SKY/WX    TMP DP  RH WIND       PRES   REMARKS
PARKERSBURG      N/A     53  51  93 E3        30.16R
$$

WVZ006-250900-
Western West Virginia

CITY           SKY/WX    TMP DP  RH WIND       PRES   REMARKS
HUNTINGTON       N/A     55  53  93 CALM      30.13S
$$

WVZ015-250900-
West Central West Virginia

CITY           SKY/WX    TMP DP  RH WIND       PRES   REMARKS
CHARLESTON       N/A     54  52  93 CALM      30.15R
$$

WVZ022-031-250900-
North Central West Virginia

CITY           SKY/WX    TMP DP  RH WIND       PRES   REMARKS
CLARKSBURG       N/A     52  50  93 CALM      30.15S
MORGANTOWN       N/A     57  50  77 CALM      30.15R
$$

WVZ025-035-042-045-250900-
Southern West Virginia

CITY           SKY/WX    TMP DP  RH WIND       PRES   REMARKS
BECKLEY          N/A     52  47  83 CALM      30.21F
LOGAN            N/A     57  54  88 CALM      30.18R
BLUEFIELD        N/A     56  46  69 SW7       30.24S
LEWISBURG        N/A     46  45  96 CALM      30.22S
$$

WVZ047-250900-
Northern Mountains of West Virginia

CITY           SKY/WX    TMP DP  RH WIND       PRES   REMARKS
ELKINS           N/A     46  43  89 CALM      30.20F FOG
$$

WVZ052-250900-
Eastern Panhandle of West Virginia

CITY           SKY/WX    TMP DP  RH WIND       PRES   REMARKS
MARTINSBURG      N/A     57  50  77 SW3       30.10R
PETERSBURG       N/A     51  50  98 CALM      30.17S
$$




USA.gov is the U.S. government's official web portal to all federal, state and local government web resources and services.